User: anonymous   Login
Location: Stoke Bliss
(52.2667°N, 2.5167°W)
Time: 02:11:38
(UTC+00:00)
Language:

ASTEX 1 - Orbit

View from above orbital plane
View from above orbital plane
View from above satellite
View from above satellite

Ground track
Ground track

The orbit data is extracted from the following two-line orbital elements,

1 05560U 71089A   21127.53148263  .00000101  00000-0  27389-4 0  9991
2 05560  92.7140 301.3000 0013923 280.6757  79.2879 14.48128292606422
Epoch (UTC): 07 May 2021 12:45:20
Eccentricity: 0.0013923
inclination: 92.7140°
perigee height: 722 km
apogee height: 741 km
right ascension of ascending node: 301.3000°
argument of perigee: 280.6757°
revolutions per day: 14.48128292
mean anomaly at epoch: 79.2879°
orbit number at epoch: 60642

The dashed part of the orbit path shows where the satellite is in the earth's shadow,  

DLR